Weather History for Delta, CO

Change the Weather History Date:

Friday, August 24, 2012

  Actual Average (KMTJ) Record (KMTJ)
Temperature  
Mean Temperature 70 °F 69 °F  
Max Temperature 79 °F 84 °F 91 °F (1998)
Min Temperature 61 °F 54 °F 50 °F (2001)
Degree Days  
Heating Degree Days 0 0  
Month to date heating degree days 0  
Since 1 June heating degree days 39  
Since 1 July heating degree days 0  
Cooling Degree Days 5 5  
Month to date cooling degree days 157  
Year to date cooling degree days 579  
Since 1 June cooling degree days 562  
Growing Degree Days 20 (Base 50)    
Moisture  
Dew Point 59 °F    
Average Humidity 70    
Maximum Humidity 93    
Minimum Humidity 47    
Precipitation  
Precipitation 0.02 in 0.04 in 0.21 in (2006)
Month to date precipitation 0.95  
Year to date precipitation 7.02  
Sea Level Pressure  
Sea Level Pressure 30.08 in    
Wind  
Wind Speed 2 mph ()    
Max Wind Speed 14 mph    
Max Gust Speed 16 mph    
Visibility 8.7 miles    
Events      
T = Trace of Precipitation, MM = Missing Value Source: Averaged Metar Reports

Daily Weather History Graph

Daily Weather History Graph

Search for Another Location

Airport:

Trip Planner

Search our weather history database for the weather conditions in past years. The results will help you decide how hot, cold, wet, or windy it might be!

Date:

Astronomy

Aug. 24, 2012 Rise Set
Actual Time 6:34 AM MDT 7:53 PM MDT
Civil Twilight 6:06 AM MDT 8:21 PM MDT
Nautical Twilight 5:33 AM MDT 8:54 PM MDT
Astronomical Twilight 4:58 AM MDT 9:28 PM MDT
Moon 2:25 PM MDT (8/24) No Moon Set
Length of Visible Light 14h 14m
Length of Day
13h 18m
First Quarter, 52% of the Moon is Illuminated
Aug 24
First Quarter
Aug 31
Full
Sep 8
Last Quarter
Sep 15
New
Sep 22
First Quarter

Hourly Weather History & Observations

Time (MDT) Temp. Dew Point Humidity Pressure Visibility Wind Dir Wind Speed Gust Speed Precip Events Conditions
12:15 AM 63.5 °F 61.3 °F 93% 30.11 in 7.0 mi Calm Calm - N/A   Overcast
12:35 AM 63.9 °F 61.7 °F 93% 30.11 in 10.0 mi Calm Calm - N/A   Overcast
6:55 AM 61.9 °F 59.7 °F 93% 30.11 in 7.0 mi Calm Calm - N/A   Unknown
7:15 AM 62.1 °F 60.1 °F 93% 30.12 in 7.0 mi Calm Calm - N/A   Unknown
7:35 AM 62.1 °F 60.1 °F 93% 30.12 in 7.0 mi Calm Calm - N/A   Unknown
7:55 AM 62.1 °F 59.7 °F 92% 30.12 in 7.0 mi Calm Calm - N/A   Unknown
8:15 AM 62.2 °F 59.9 °F 92% 30.13 in 7.0 mi Calm Calm - N/A   Unknown
8:35 AM 62.6 °F 59.9 °F 91% 30.12 in 5.0 mi Calm Calm - 0.01 in   Unknown
8:55 AM 62.6 °F 59.4 °F 89% 30.13 in 7.0 mi Calm Calm - 0.01 in   Unknown
9:15 AM 62.6 °F 59.9 °F 91% 30.13 in 7.0 mi Calm Calm - 0.01 in   Unknown
9:35 AM 62.8 °F 60.8 °F 93% 30.13 in 5.0 mi Calm Calm - 0.01 in   Unknown
9:55 AM 63.1 °F 60.6 °F 91% 30.13 in 10.0 mi Calm Calm - 0.01 in   Unknown
10:15 AM 63.9 °F 60.6 °F 89% 30.13 in 10.0 mi Calm Calm - N/A   Unknown
10:35 AM 64.6 °F 60.6 °F 87% 30.13 in 10.0 mi Calm Calm - N/A   Unknown
10:55 AM 65.3 °F 60.4 °F 84% 30.13 in 7.0 mi East 3.5 mph - N/A   Unknown
11:15 AM 66.0 °F 60.4 °F 82% 30.13 in 7.0 mi Calm Calm - N/A   Unknown
11:35 AM 66.4 °F 59.9 °F 80% 30.13 in 7.0 mi Calm Calm - N/A   Unknown
11:55 AM 67.6 °F 60.3 °F 77% 30.13 in 10.0 mi Calm Calm - N/A   Unknown
12:15 PM 68.2 °F 61.3 °F 79% 30.12 in 7.0 mi SE 4.6 mph - N/A   Unknown
12:35 PM 68.5 °F 60.4 °F 75% 30.12 in 10.0 mi SSE 3.5 mph - N/A   Unknown
12:55 PM 69.3 °F 60.4 °F 73% 30.11 in 10.0 mi Calm Calm - N/A   Unknown
1:15 PM 70.2 °F 59.7 °F 69% 30.10 in 10.0 mi SE 3.5 mph - N/A   Unknown
1:35 PM 70.9 °F 60.6 °F 70% 30.10 in 10.0 mi SSE 3.5 mph - N/A   Unknown
1:55 PM 71.8 °F 60.6 °F 68% 30.09 in 7.0 mi SE 3.5 mph - N/A   Unknown
2:15 PM 73.4 °F 61.0 °F 65% 30.08 in 10.0 mi SE 4.6 mph - N/A   Unknown
2:35 PM 73.9 °F 60.8 °F 63% 30.07 in 10.0 mi Calm Calm - N/A   Unknown
2:55 PM 74.3 °F 59.9 °F 61% 30.06 in 10.0 mi South 3.5 mph - N/A   Unknown
3:15 PM 75.2 °F 59.5 °F 58% 30.05 in 10.0 mi Calm Calm - N/A   Unknown
3:35 PM 75.6 °F 58.6 °F 56% 30.04 in 10.0 mi Calm Calm - N/A   Unknown
3:55 PM 76.8 °F 59.9 °F 56% 30.03 in 10.0 mi Calm Calm - N/A   Unknown
4:15 PM 77.2 °F 59.4 °F 54% 30.02 in 10.0 mi Calm Calm - N/A   Unknown
4:35 PM 77.4 °F 59.0 °F 53% 30.02 in 7.0 mi Calm Calm - N/A   Unknown
4:55 PM 77.9 °F 57.9 °F 50% 30.01 in 7.0 mi Calm Calm - N/A   Unknown
5:15 PM 78.8 °F 58.6 °F 50% 30.01 in 7.0 mi ENE 3.5 mph - N/A   Unknown
5:35 PM 79.2 °F 59.0 °F 50% 30.00 in 10.0 mi East 3.5 mph - N/A   Unknown
6:15 PM 78.8 °F 58.3 °F 49% 29.99 in 10.0 mi East 3.5 mph - N/A   Unknown
6:35 PM 78.8 °F 56.8 °F 47% 29.99 in 10.0 mi East 4.6 mph - N/A   Unknown
6:55 PM 78.3 °F 58.1 °F 50% 30.00 in 10.0 mi East 3.5 mph - N/A   Unknown
7:15 PM 77.4 °F 57.7 °F 51% 30.00 in 10.0 mi NE 4.6 mph - N/A   Unknown
7:35 PM 75.6 °F 61.2 °F 61% 30.02 in 10.0 mi NNE 5.8 mph - N/A   Unknown
7:55 PM 76.3 °F 58.1 °F 53% 30.02 in 10.0 mi East 12.7 mph 16.1 mph N/A   Unknown
8:15 PM 72.5 °F 55.0 °F 54% 30.02 in 10.0 mi East 13.8 mph - N/A   Unknown
8:35 PM 72.0 °F 51.4 °F 48% 30.03 in 10.0 mi East 11.5 mph - N/A   Unknown
8:55 PM 69.8 °F 54.1 °F 57% 30.03 in 7.0 mi Calm Calm - N/A   Unknown
9:15 PM 70.3 °F 52.5 °F 53% 30.05 in 10.0 mi NNE 3.5 mph - N/A   Unknown
9:35 PM 68.7 °F 54.9 °F 61% 30.06 in 7.0 mi Calm Calm - N/A   Unknown
10:35 PM 68.0 °F 54.3 °F 62% 30.08 in 10.0 mi Calm Calm - N/A   Unknown
10:55 PM 67.3 °F 54.3 °F 63% 30.08 in 7.0 mi NNE 10.4 mph - N/A   Unknown
11:15 PM 66.0 °F 55.8 °F 69% 30.09 in 10.0 mi NNE 4.6 mph - N/A   Unknown
11:35 PM 66.2 °F 56.1 °F 70% 30.08 in 10.0 mi NNE 6.9 mph - N/A   Unknown
11:55 PM 64.8 °F 55.6 °F 72% 30.08 in 10.0 mi East 6.9 mph - N/A   Unknown